OBJECT C, 57426

Orbit data source: Space-Track

You're viewing an Uncataloged Satellite

Recently launched and/or uncataloged satellites may have evolving metadata. Metadata may include but not limited to: Owner, Maufacturer, Bus, Motor, and Mission.

OBJECT C, 57426 is a satellite owned by Sixiang Aishu (CN) in SSO that was launched on Sun, 23 Jul 2023 UTC via a CHANG ZHENG 2D launch vehicle from the Taiyaun Space Center, China (TSC). Unknown objects in Earth's orbit typically refer to objects detected orbiting the Earth but have not yet been identified or cataloged. These objects could be anything from previously untracked satellites, spent rocket stages, debris from satellite collisions, or even natural meteoroids temporarily captured by Earth's gravity.

Loading next visibility...
Identifier
57426, 2023-104C
Orbit
SSO
Country
Flag of CNCN / PRC
Related business
Flag of CNBeijing Skysight Technology Co., LTD (CN)
Manufacturer
Yinhe
Mission
Operational Commercial Imaging
Bus & Motor
AS, Unknown motor
Mass
~100 kg wet, ~100 kg dry
Launch date (UTC)
2023-07-23 (3 years ago)
Launch vehicle
CHANG ZHENG 2D
Launch site
Taiyaun Space Center, China (TSC)
Object type
Unknown
Shape & HBR
Box + 2 Pan, 0.8 m
Radar Cross Section
0.363 m², Medium (>0.1 m² and < 1m²)

Expand to show TLE details & history
Last TLE update: 6 hours ago

TLE from 6 hours ago
0 OBJECT C
1 57426U 23104C   26127.63344976  .00010989  00000-0  39831-3 0  9998
2 57426  97.2639 192.5571 0012821 143.0307 217.1819 15.28451260155592
Epoch: 2026-05-07T15:12Z
TLE epoch observation values (Epoch: 2026-05-07T15:12:10.059Z)
Latitude
-0.00002°
Longitude
99.0384°
Altitude
490.559 km
Speed
7.616 km/s
True Right ascension
12h 50m 13s
True Declination
0° 00' 00"
Sunlit
Object was in full shadow at epoch
Visualization orbit readout
Latitude
Unknown
Longitude
Unknown
Altitude
Unknown
Speed
Unknown
Apparent Right ascension
Unknown
Apparent Declination
Unknown
Sunlit
N/A
Visualization observer readout
Local Sidereal Time
05:16:49
Azimuth
Unknown
Elevation
Unknown
Doppler factor
Unknown
Orbital elements
Apogee altitude
486.179 km
Perigee altitude
468.601 km
Semi-major axis
6,855.527 km
Eccentricity
0.00128
Inclination
97.2639°
RAAN
192.5571°
Arg. of periapsis
143.0307°
True anomaly
217.09322°
Mean anomaly
217.1819°
Eccentric anomaly
217.13755°
Mean motion
3.82368 °/min
Orbital period
94.15 mins
BSTAR
0.00039831
Loading maneuver chart data...
Computing Atmospheric mass density...
Loading historical data...
Loading historical data...
Loading historical data...
Loading historical data...
Loading historical data...
Loading historical data...
Loading historical data...

Documentation

Showing up to 5 results
|